PUA257 MMUN-RJBB

Flight info

Callsign PUA257
Flight time N/A
Altitude 28000
Route NOSUG2A NOSUG UT27 PISAD L333 HRV/N0507F300 J58 SPS J168 LAA J20 OCS/N0492F320 J163 PIH J20 SEA Q902 ANN J195 FLIPS/N0482F340 J195 BKA J605 MDO Q10 ENM B241 RUSOR/K0913F340 T564 BERUD/K0913F360 T564 UMOLA A956 PAKLI T565 ANIMO/N0495F360 Y114 AWE Y116 CHE Y12 HWE/N0485F380 Y14 GOLDO Y381 KMC Y382 WAKIT Y201 TRACY
Aircraft B77W/H-SDE1E2E3FGHIJ2J3J4J5M1RWXY/LB1D1

Departure

Time 2026-04-29 01:58
Airport Cancún International Airport (MMUN)

Arrival

Time N/A
Airport Kansai International Airport (RJBB)
Time Latitude Longitude Altitude Speed Heading
2026-04-29 01:31 21.04084 -86.87652 34 ft 0 kts 163°
2026-04-29 01:45 21.04092 -86.87655 32 ft 3 kts 168°
2026-04-29 01:46 21.04111 -86.87661 32 ft 3 kts 153°
2026-04-29 01:46 21.04127 -86.87671 32 ft 3 kts 139°
2026-04-29 01:46 21.04141 -86.87685 31 ft 3 kts 137°
2026-04-29 01:46 21.04155 -86.87700 32 ft 3 kts 129°
2026-04-29 01:47 21.04167 -86.87715 32 ft 3 kts 129°
2026-04-29 01:47 21.04179 -86.87731 31 ft 3 kts 128°
2026-04-29 01:47 21.04190 -86.87746 31 ft 3 kts 127°
2026-04-29 01:47 21.04198 -86.87758 31 ft 0 kts 127°
2026-04-29 01:51 21.04196 -86.87754 31 ft 4 kts 127°
2026-04-29 01:51 21.04149 -86.87739 33 ft 9 kts 192°
2026-04-29 01:51 21.04094 -86.87773 34 ft 9 kts 212°
2026-04-29 01:51 21.04040 -86.87810 34 ft 9 kts 213°
2026-04-29 01:52 21.03991 -86.87851 34 ft 9 kts 232°
2026-04-29 01:52 21.03992 -86.87918 35 ft 10 kts 297°
2026-04-29 01:52 21.04027 -86.87980 35 ft 10 kts 303°
2026-04-29 01:52 21.04065 -86.88040 35 ft 10 kts 303°
2026-04-29 01:53 21.04105 -86.88104 35 ft 13 kts 303°
2026-04-29 01:53 21.04167 -86.88204 35 ft 19 kts 303°
2026-04-29 01:53 21.04247 -86.88331 35 ft 21 kts 304°
2026-04-29 01:53 21.04326 -86.88456 35 ft 21 kts 304°
2026-04-29 01:54 21.04406 -86.88584 35 ft 21 kts 303°
2026-04-29 01:54 21.04485 -86.88711 35 ft 21 kts 304°
2026-04-29 01:54 21.04563 -86.88833 35 ft 19 kts 304°
2026-04-29 01:54 21.04619 -86.88923 35 ft 8 kts 304°
2026-04-29 01:55 21.04638 -86.88966 35 ft 7 kts 278°
2026-04-29 01:55 21.04617 -86.89019 35 ft 9 kts 223°
2026-04-29 01:55 21.04569 -86.89056 36 ft 9 kts 215°
2026-04-29 01:55 21.04514 -86.89060 37 ft 9 kts 143°
2026-04-29 01:56 21.04489 -86.89025 37 ft 0 kts 123°
2026-04-29 01:57 21.04480 -86.89010 37 ft 11 kts 123°
2026-04-29 01:57 21.04391 -86.88864 38 ft 42 kts 123°
2026-04-29 01:57 21.04079 -86.88367 39 ft 119 kts 124°
2026-04-29 01:57 21.03480 -86.87424 41 ft 186 kts 124°
2026-04-29 01:58 21.02713 -86.86222 569 ft 199 kts 125°
2026-04-29 01:58 21.02014 -86.84960 1391 ft 196 kts 105°
2026-04-29 01:58 21.02068 -86.83514 2153 ft 203 kts 72°
2026-04-29 01:58 21.02913 -86.82245 2267 ft 219 kts 42°
2026-04-29 01:59 21.04199 -86.81322 2504 ft 230 kts 34°
2026-04-29 01:59 21.05601 -86.80435 2823 ft 239 kts 34°
2026-04-29 01:59 21.07058 -86.79522 3205 ft 245 kts 34°
2026-04-29 01:59 21.08566 -86.78607 3611 ft 253 kts 26°
2026-04-29 02:00 21.10333 -86.78203 3940 ft 265 kts
2026-04-29 02:00 21.12239 -86.78379 3977 ft 281 kts 352°
2026-04-29 02:00 21.14176 -86.78816 4000 ft 287 kts 350°
2026-04-29 02:00 21.16136 -86.79265 4015 ft 288 kts 351°
2026-04-29 02:01 21.18115 -86.79697 3995 ft 291 kts 351°
2026-04-29 02:01 21.20101 -86.80115 4075 ft 292 kts 352°
2026-04-29 02:01 21.22097 -86.80507 4707 ft 292 kts 352°
2026-04-29 02:01 21.24101 -86.80895 5344 ft 293 kts 352°
2026-04-29 02:02 21.26035 -86.81269 5950 ft 294 kts 352°
2026-04-29 02:02 21.28047 -86.81657 6609 ft 293 kts 352°
2026-04-29 02:02 21.30067 -86.82047 7169 ft 296 kts 352°
2026-04-29 02:02 21.32103 -86.82441 7715 ft 298 kts 352°
2026-04-29 02:03 21.34158 -86.82838 8234 ft 301 kts 352°
2026-04-29 02:03 21.36231 -86.83239 8794 ft 303 kts 352°
2026-04-29 02:03 21.38315 -86.83643 9321 ft 306 kts 352°
2026-04-29 02:03 21.40418 -86.84050 9885 ft 308 kts 353°
2026-04-29 02:04 21.41814 -86.84321 10197 ft 310 kts 353°
2026-04-29 02:04 21.43985 -86.84740 10372 ft 326 kts 352°
2026-04-29 02:04 21.46274 -86.85181 10524 ft 343 kts 352°
2026-04-29 02:04 21.48682 -86.85647 10640 ft 360 kts 352°
2026-04-29 02:05 21.52034 -86.86298 11012 ft 375 kts 352°
2026-04-29 02:05 21.53780 -86.86638 11310 ft 379 kts 352°
2026-04-29 02:05 21.56358 -86.87141 11860 ft 382 kts 352°
2026-04-29 02:05 21.59004 -86.87657 12514 ft 382 kts 351°
2026-04-29 02:06 21.61587 -86.88161 13122 ft 382 kts 351°
2026-04-29 02:06 21.64211 -86.88672 13698 ft 384 kts 351°
2026-04-29 02:06 21.66846 -86.89185 14211 ft 386 kts 351°
2026-04-29 02:06 21.69500 -86.89702 14688 ft 388 kts 351°
2026-04-29 02:07 21.72174 -86.90222 15167 ft 390 kts 351°
2026-04-29 02:07 21.74859 -86.90746 15638 ft 392 kts 351°
2026-04-29 02:07 21.77551 -86.91271 16135 ft 394 kts 351°
2026-04-29 02:07 21.80259 -86.91799 16606 ft 397 kts 351°
2026-04-29 02:08 21.82981 -86.92329 17059 ft 399 kts 351°
2026-04-29 02:08 21.85725 -86.92864 17520 ft 401 kts 351°
2026-04-29 02:08 21.88463 -86.93267 17965 ft 403 kts 355°
2026-04-29 02:08 21.91271 -86.93525 18406 ft 405 kts 356°
2026-04-29 02:09 21.94093 -86.93730 18815 ft 407 kts 357°
2026-04-29 02:09 21.96930 -86.93928 19219 ft 409 kts 357°
2026-04-29 02:09 21.99777 -86.94136 19621 ft 411 kts 356°
2026-04-29 02:09 22.02640 -86.94357 20022 ft 413 kts 356°
2026-04-29 02:10 22.05523 -86.94591 20420 ft 416 kts 356°
2026-04-29 02:10 22.08410 -86.94833 20814 ft 418 kts 356°